Lexington Weather

Lexington, Massachusetts, USA

26°F
2/26/2021 8:07am 
  • Lexington Conditions: Clear
  • Temperature: 25.9°F / -3.4°CWarmer 1.5°F than last hour.
  • Dew Point: 16.2°FIncreased 1.5°Fsince last hour.
  • Relative Humidity: 66
  • Wind: Wind from NNW NNW 1 mph, 10-min avg: 2 mph, gust: 4 mph
  • Barometer: 30.37 inRising 0.04  inHg/hr Rising Slowly
  • Visibility: 10 miles
  • Snow Today: 0.0 in
  •   

Regional Weather Roundup
for Boston / Norton, MA

        
000
ASUS41 KBOX 250404
RWRBOX

REGIONAL WEATHER ROUNDUP
NATIONAL WEATHER SERVICE BOSTON/NORTON MA
1100 PM EST WED FEB 24 2021

NOTE:  "FAIR" INDICATES FEW OR NO CLOUDS BELOW 12,000 FEET WITH NO 
SIGNIFICANT WEATHER AND/OR OBSTRUCTIONS TO VISIBILITY.

MAZALL-250500-
EASTERN MASSACHUSETTS
  
CITY           SKY/WX    TMP DP  RH WIND       PRES   REMARKS
BOSTON         CLOUDY    45  33  63 SW21G29   29.67F                  
BEVERLY        CLOUDY    45  32  60 SW20G28   29.64F                  
LAWRENCE       CLOUDY    44  31  60 SW13G22   29.65F                  
BEDFORD        MOCLDY    44  32  62 SW15      29.65F                  
BLUE HILL        N/A     43  34  70 SW24G32   29.64F                  
NORWOOD        CLOUDY    47  34  60 SW14G23   29.68F                  
MARSHFIELD     CLOUDY    48  39  71 SW20G26   29.69F                  
PLYMOUTH       CLOUDY    46  38  73 SW18G33   29.72F                  
TAUNTON        CLOUDY    46  38  73 S12G22    29.71F                  
NEW BEDFORD    MOCLDY    46  39  76 SW15G22   29.73F                  
$$

MAZALL-250500-
CAPE COD AND THE ISLANDS
  
CITY           SKY/WX    TMP DP  RH WIND       PRES   REMARKS
FALMOUTH       MOCLDY    46  41  81 SW23G32   29.75F                  
HYANNIS        MOCLDY    43  38  82 SW16      29.74F                  
CHATHAM        LGT RAIN  42  37  82 SW12G28   29.76F                  
PROVINCETOWN   CLOUDY    42  38  85 SW20G25   29.73F                  
NANTUCKET      CLOUDY    42  40  92 S10       29.79F                  
MARTHAS VNYRD  MOCLDY    44  40  85 SW16G26   29.77F                  
$$
 
MAZALL-250500-
CENTRAL AND WESTERN MASSACHUSETTS
  
CITY           SKY/WX    TMP DP  RH WIND       PRES   REMARKS
WORCESTER      LGT RAIN  43  32  65 SW20      29.65F                  
FITCHBURG      LGT RAIN  46  34  62 SW17G31   29.64F                  
ORANGE         CLOUDY    41  31  67 S17       29.64F                  
SPRINGFIELD    LGT RAIN  42  33  71 S9        29.67F                  
WESTFIELD      LGT RAIN  41  32  70 S9        29.67F                  
NORTH ADAMS    CLOUDY    48  29  47 W10G18    29.61F                  
PITTSFIELD     MOCLDY    44  30  57 SW14G20   29.61F                  
$$
 
RIZALL-250500-
RHODE ISLAND
  
CITY           SKY/WX    TMP DP  RH WIND       PRES   REMARKS
PROVIDENCE     MOCLDY    47  39  74 SW20G31   29.71F                  
NEWPORT        CLOUDY    44  40  85 SW13G26   29.73F                  
BLOCK ISLAND   CLOUDY    43  40  89 SW13      29.76F                  
SMITHFIELD     MOCLDY    44  40  85 SW13G26   29.68F                  
WESTERLY       MOCLDY    42  38  85 SW6       29.76F                  
$$
 
CTZALL-250500-
CONNECTICUT
  
CITY           SKY/WX    TMP DP  RH WIND       PRES   REMARKS
BRADLEY INTL   LGT RAIN  44  33  65 S13       29.69F                  
HARTFORD       CLOUDY    45  35  68 SW6       29.73F                  
BRIDGEPORT     CLOUDY    42  36  79 SW7       29.74F                  
DANBURY        CLOUDY    46  33  60 W10       29.74F                  
GROTON         MOCLDY    43  38  82 SW9       29.74F                  
NEW HAVEN      MOCLDY    43  38  82 SW8       29.73F                  
CHESTER        FAIR      45  41  87 SW10G18   29.73F                  
MERIDEN        CLOUDY    44  36  73 CALM      29.74F                  
WILLIMANTIC    CLOUDY    46  38  73 SW6       29.72F                  
OXFORD         LGT RAIN  42  36  79 SW7       29.73F                  
$$

MEZ002-015-021-024-NHZ003-005-008-011-012-014-VTZ005-008-250500-
NORTHERN NEW ENGLAND
  
CITY           SKY/WX    TMP DP  RH WIND       PRES   REMARKS
PORTLAND ME    MOCLDY    41  29  62 S7        29.58F                  
BANGOR ME      CLOUDY    37  33  85 SE9       29.56F WCI  30          
CONCORD NH     CLOUDY    44  28  53 S15G25    29.59F                  
MANCHESTER NH  MOCLDY    47  29  49 SW12G22   29.59F                  
NASHUA NH      CLOUDY    44  30  57 VRB6      29.63F                  
PORTSMOUTH NH  CLOUDY    44  26  49 SW13G20   29.59F                  
JAFFREY NH     CLOUDY    42  29  59 SW15G24   29.61F                  
KEENE NH       CLOUDY    43  30  60 S8        29.61F                  
BURLINGTON VT  CLOUDY    42  29  59 S7        29.52S                  
MT. WASHINGTON SNOWSHWR  21  21 100 W75G82      N/A  VSB 0   WCI  -4  
$$

NYZ052-076-250500-
EASTERN NEW YORK
  
CITY           SKY/WX    TMP DP  RH WIND       PRES   REMARKS
ALBANY         CLOUDY    42  28  57 SW7       29.64R                  
NEW YORK CITY  MOCLDY    50  36  58 SW15G23   29.77S                  
$$
 
ANZALL-250500-
MARINE OBSERVATIONS
  
STATION/POSITION TIME  TEMP    WIND        PRES    VSBY  WAVE
                       AIR SEA DIR/SP/G                  HT/PER
                 (UTC) (F)     (DEG/KT/KT) (MB)    (MI)  (FT/S)
BOSTON BUOY      0340   44 39  210/ 19/ 23 1005.3F
BUZZARDS BAY     0300          210/ 15/ 17 1009.3F
NANTUCKET SOUND  0340      36  200/ 16/ 17   N/A
MASS BAY-STELLWA 0304   43     210/ 17/ 21 1004.3F  1 7/8  4/ 5
ISLE OF SHOALS   0300   44     210/ 26/ 28 1003.4F
S OF BLOCK IS    0326      38                N/A           5/ 6
$$

......................KEY.........................
  SKY/WX - SKY CONDITION/PRESENT WEATHER
  TMP    - TEMPERATURE IN FAHRENHEIT
  DWPT   - DEWPOINT IN FAHRENHEIT
  RH     - RELATIVE HUMIDITY IN PERCENT
  WIND   - DIRECTION AND SPEED IN MPH
  PRES   - MEAN SEA LEVEL PRESSURE IN INCHES OF HG
  WCI    - WIND CHILL INDEX
  VSB    - VISIBILITY IN MILES
  HX     - HEAT INDEX
  TC     - TEMPERATURE IN CELSIUS
  VRB    - VARIABLE WIND DIRECTION
  N/A    - NOT AVAILABLE
  
      

Other recent Regional Weather Roundups

Fri Feb 26, 7:04am

Fri Feb 26, 6:04am

Fri Feb 26, 5:04am

Fri Feb 26, 4:04am

Fri Feb 26, 3:04am

Fri Feb 26, 2:04am

Fri Feb 26, 1:04am

Fri Feb 26, 12:04am

Thu Feb 25, 11:04pm

Thu Feb 25, 10:04pm

Thu Feb 25, 9:04pm

Thu Feb 25, 8:05pm

Thu Feb 25, 7:05pm

Thu Feb 25, 6:04pm

Thu Feb 25, 5:04pm

Thu Feb 25, 4:05pm

Thu Feb 25, 3:05pm

Thu Feb 25, 2:04pm

Thu Feb 25, 1:04pm

Thu Feb 25, 12:05pm

Thu Feb 25, 11:04am

Thu Feb 25, 10:04am

Thu Feb 25, 9:04am

Thu Feb 25, 8:04am

Thu Feb 25, 7:04am

Thu Feb 25, 6:04am

Thu Feb 25, 5:04am

Thu Feb 25, 4:04am

Thu Feb 25, 3:04am

Thu Feb 25, 2:04am

Thu Feb 25, 1:04am

Thu Feb 25, 12:04am

Wed Feb 24, 10:05pm

Wed Feb 24, 9:04pm

Wed Feb 24, 8:04pm

Wed Feb 24, 7:04pm

Wed Feb 24, 6:04pm

Wed Feb 24, 5:04pm

Wed Feb 24, 4:04pm

Wed Feb 24, 3:04pm

Wed Feb 24, 2:05pm

Wed Feb 24, 1:05pm

Wed Feb 24, 12:05pm

Wed Feb 24, 11:04am

Wed Feb 24, 10:04am

Wed Feb 24, 9:04am

Wed Feb 24, 8:04am

Wed Feb 24, 7:04am

Wed Feb 24, 6:04am

Wed Feb 24, 5:04am

Wed Feb 24, 4:04am

Wed Feb 24, 3:04am

Wed Feb 24, 2:04am

Wed Feb 24, 1:04am

Wed Feb 24, 12:04am

Tue Feb 23, 11:04pm

Tue Feb 23, 10:04pm

Tue Feb 23, 9:04pm

Tue Feb 23, 8:05pm

Tue Feb 23, 7:04pm

Tue Feb 23, 6:04pm

Tue Feb 23, 5:04pm

Tue Feb 23, 4:05pm

Tue Feb 23, 3:04pm

Tue Feb 23, 2:04pm

Tue Feb 23, 1:04pm

Tue Feb 23, 12:04pm

Tue Feb 23, 11:04am

Tue Feb 23, 10:04am

Tue Feb 23, 9:04am

Tue Feb 23, 7:04am

Tue Feb 23, 6:04am

Tue Feb 23, 5:04am

Tue Feb 23, 4:04am

Tue Feb 23, 3:04am

Tue Feb 23, 2:04am

Tue Feb 23, 1:04am

Tue Feb 23, 12:04am

Mon Feb 22, 11:04pm

Mon Feb 22, 10:04pm

Mon Feb 22, 9:04pm

Mon Feb 22, 8:04pm

Mon Feb 22, 7:04pm

Mon Feb 22, 6:04pm

Mon Feb 22, 5:04pm

Mon Feb 22, 4:05pm

Mon Feb 22, 3:04pm

Mon Feb 22, 2:05pm

Mon Feb 22, 1:04pm

Mon Feb 22, 12:05pm

Mon Feb 22, 11:04am

Mon Feb 22, 10:04am

Mon Feb 22, 9:05am

Mon Feb 22, 8:04am

Mon Feb 22, 7:04am

Mon Feb 22, 6:04am

Mon Feb 22, 5:04am

Mon Feb 22, 4:04am

Mon Feb 22, 3:04am

Mon Feb 22, 2:04am

Mon Feb 22, 1:04am

Mon Feb 22, 12:04am

Sun Feb 21, 11:04pm

Sun Feb 21, 10:05pm

Sun Feb 21, 9:04pm

Sun Feb 21, 8:04pm

Sun Feb 21, 7:04pm

Sun Feb 21, 6:04pm

Sun Feb 21, 5:04pm

Sun Feb 21, 4:05pm

Sun Feb 21, 3:04pm

Sun Feb 21, 2:04pm

Sun Feb 21, 1:05pm

Sun Feb 21, 12:05pm

Sun Feb 21, 11:04am

Sun Feb 21, 10:05am

Sun Feb 21, 9:04am

Sun Feb 21, 8:04am

Sun Feb 21, 7:04am

Sun Feb 21, 6:04am

Sun Feb 21, 5:04am

Sun Feb 21, 4:04am

Sun Feb 21, 3:04am

Sun Feb 21, 2:04am

Sun Feb 21, 1:04am

Sun Feb 21, 12:04am

Sat Feb 20, 11:04pm

Sat Feb 20, 10:04pm

Sat Feb 20, 9:04pm

Sat Feb 20, 8:04pm

Sat Feb 20, 7:04pm

Sat Feb 20, 6:04pm

Sat Feb 20, 5:04pm

Sat Feb 20, 4:05pm

Sat Feb 20, 3:04pm

Sat Feb 20, 2:04pm

Sat Feb 20, 1:05pm

Sat Feb 20, 12:05pm

Sat Feb 20, 11:04am

Sat Feb 20, 10:05am

Sat Feb 20, 9:04am

Sat Feb 20, 8:04am

Sat Feb 20, 7:04am

Sat Feb 20, 6:04am

Sat Feb 20, 5:04am

Sat Feb 20, 4:04am

Sat Feb 20, 3:04am

Sat Feb 20, 2:04am

Sat Feb 20, 1:04am

Sat Feb 20, 12:04am

Fri Feb 19, 11:04pm

Fri Feb 19, 10:05pm

Fri Feb 19, 9:04pm

Fri Feb 19, 8:04pm

Fri Feb 19, 7:04pm

Fri Feb 19, 6:04pm

Fri Feb 19, 5:04pm

Fri Feb 19, 4:05pm

Fri Feb 19, 3:04pm

Fri Feb 19, 2:04pm

Fri Feb 19, 1:05pm

Fri Feb 19, 12:05pm

Fri Feb 19, 11:04am

Fri Feb 19, 10:04am

Fri Feb 19, 9:04am

Fri Feb 19, 8:04am

Meta data:

ID: a6deb203-52a0-44e0-9084-8060cded05f6
Link: https://api.weather.gov/products/a6deb203-52a0-44e0-9084-8060cded05f6